CAPE
0 0 0 0 0 0 0 0 0 0 0 0 0 0 0 0 0 0 0 0 0 0 0 0 0 0 0 0 0 0 0 0 0 0 0 0 52 451 328 244 95 29 0 0 0
0 0 0 0 0 0 0 0 0 0 0 0 0 0 0 0 0 0 0 0 0 0 0 0 0 0 0 0 0 0 0 0 0 0 0 0 42 521 331 182 72 70 58 0 0
1 0 0 0 0 0 0 0 0 0 0 0 0 0 0 0 0 0 0 0 0 0 0 0 0 0 0 0 0 0 0 0 0 0 0 0 2 89 1 9 57 91 76 2 0
1 0 0 0 0 0 0 0 0 0 0 0 0 0 0 0 0 0 0 0 0 0 0 0 0 0 0 0 0 0 0 0 0 0 0 0 0 0 0 0 0 1 173 96 16
0 0 0 0 0 0 0 0 0 0 0 0 0 0 0 0 0 0 0 0 0 0 0 0 0 0 0 0 0 0 0 0 0 0 0 0 0 0 0 15 31 21 163 162 321
0 0 0 0 0 0 0 0 0 0 0 0 0 0 0 0 0 0 0 0 0 0 0 0 0 0 0 0 0 0 0 0 0 0 0 0 0 0 0 133 75 224 255 201 259
0 0 0 0 0 0 0 0 0 0 0 0 0 0 0 0 0 0 0 0 0 0 0 0 0 0 0 0 0 0 0 0 0 0 0 0 0 0 0 9 91 321 216 12 1
0 0 0 0 0 0 0 0 0 0 0 0 0 0 0 0 0 0 0 0 0 0 0 0 0 0 0 0 0 0 0 0 0 0 0 0 0 0 0 31 186 356 162 0 0
0 0 0 0 0 0 0 0 0 0 0 0 0 0 0 0 0 0 0 0 0 0 0 0 0 0 0 0 0 0 0 0 0 0 0 0 0 0 16 67 384 310 136 0 0
0 0 0 0 0 0 0 0 0 0 0 0 0 0 0 0 0 0 0 0 0 0 0 0 0 0 0 0 0 0 0 0 0 0 0 0 0 0 420 374 341 195 44 0 0
0 0 0 0 0 0 0 0 0 0 0 0 0 0 0 0 0 0 0 0 0 0 0 0 0 0 0 0 0 0 0 0 0 0 0 0 0 0 32 175 206 20 0 0 0
0 0 0 0 0 0 0 0 0 0 0 0 0 0 0 0 0 0 0 0 0 0 0 0 0 0 0 0 0 0 0 0 0 0 0 0 0 15 127 65 20 0 0 0 0
0 0 0 0 0 0 0 0 0 0 0 0 0 0 0 0 0 0 0 0 0 0 0 0 0 0 0 0 0 0 0 0 0 0 0 0 0 0 0 0 0 0 0 0 0
0 0 0 0 0 0 0 0 0 0 0 0 0 0 0 0 0 0 0 0 0 0 0 0 0 0 0 0 0 0 0 0 0 0 0 0 0 0 0 0 0 0 0 0 0
0 0 0 0 0 0 0 0 0 0 0 0 0 0 0 0 0 0 0 0 0 0 0 0 0 0 0 0 0 0 0 0 0 0 0 0 0 0 0 0 0 0 0 0 0
0 0 0 0 0 0 0 0 0 0 0 0 0 0 0 0 0 0 0 0 0 0 0 0 0 0 0 0 0 0 0 0 0 0 0 0 0 0 0 0 0 0 0 0 0
0 0 0 0 0 0 0 0 0 0 0 0 0 0 0 0 0 0 0 0 0 0 0 0 0 0 0 0 0 0 0 0 0 0 0 0 0 0 0 0 0 0 0 0 0
0 0 0 0 0 0 0 0 0 0 0 0 0 0 0 0 0 0 0 0 0 0 0 0 0 0 0 0 0 0 0 0 0 0 0 0 0 0 0 0 0 0 0 0 0
0 0 0 0 0 0 0 0 0 0 0 0 0 0 0 0 0 0 0 0 0 0 0 0 0 0 0 0 0 0 0 0 0 0 0 0 0 0 0 0 0 0 0 0 0
0 0 0 0 0 0 0 0 0 0 0 0 0 0 0 0 0 0 0 0 0 0 0 0 0 0 0 0 0 0 0 0 0 0 0 0 0 0 0 0 0 0 0 0 0
0 0 0 0 0 0 0 0 0 0 0 0 0 0 0 0 0 0 0 0 0 0 0 0 0 0 0 0 0 0 0 0 0 0 0 0 0 0 0 0 0 0 0 0 0
0 0 0 0 0 0 0 0 0 0 0 0 0 0 0 0 0 0 0 0 0 0 0 0 0 0 0 0 0 0 0 0 0 0 0 0 0 0 0 0 0 0 0 0 0
0 0 0 0 0 0 0 0 0 0 0 0 0 0 0 0 0 0 0 0 0 0 0 0 0 0 0 0 0 0 0 0 0 0 0 0 0 0 0 0 0 0 0 0 0
0 0 0 0 0 0 0 0 0 0 0 0 0 0 0 0 0 0 0 0 0 0 0 0 0 0 0 0 0 0 0 0 0 0 0 0 0 0 0 0 0 0 0 1 0
0 0 0 0 0 0 0 0 0 0 0 0 0 0 0 0 0 0 0 0 0 0 0 0 0 0 0 0 0 0 0 0 0 0 0 0 0 0 0 0 0 0 0 0 0
0 0 0 0 0 0 0 0 0 0 0 0 0 0 0 0 0 0 0 0 0 0 0 0 0 0 0 0 0 0 0 0 0 0 0 0 0 0 0 0 0 0 0 0 0
0 0 0 0 0 0 0 0 0 0 0 0 0 0 0 0 0 0 0 0 0 0 0 0 0 0 0 0 0 0 0 0 0 0 0 0 0 0 0 0 0 1 0 0 0
CIN
-0 -0 -0 -0 -0 -0 -0 -0 -0 -0 -0 -0 -0 -0 -0 -0 -0 -0 -0 -0 -0 -0 -0 -0 -0 -0 -0 -0 -0 -0 -0 -0 -0 -0 -0 -0 -80 -180 -230 -167 -238 -246 -48 -0 -0
-0 -0 -0 -0 -0 -0 -0 -0 -0 -0 -0 -0 -0 -0 -0 -0 -0 -0 -0 -0 -0 -0 -0 -0 -0 -0 -0 -0 -0 -0 -0 -0 -0 -0 -0 -0 -85 -99 -119 -100 -131 -150 -207 -0 -0
-0 -0 -0 -0 -0 -0 -0 -0 -0 -0 -0 -0 -0 -0 -0 -0 -0 -0 -0 -0 -0 -0 -0 -0 -0 -0 -0 -0 -0 -0 -0 -0 -0 -0 -0 -0 -11 -152 -14 -13 -113 -79 -125 -62 -0
-0 -0 -0 -0 -0 -0 -0 -0 -0 -0 -0 -0 -0 -0 -0 -0 -0 -0 -0 -0 -0 -0 -0 -0 -0 -0 -0 -0 -0 -0 -0 -0 -0 -0 -0 -0 -0 -0 -0 -0 -0 -7 -105 -205 -240
-0 -0 -0 -0 -0 -0 -0 -0 -0 -0 -0 -0 -0 -0 -0 -0 -0 -0 -0 -0 -0 -0 -0 -0 -0 -0 -0 -0 -0 -0 -0 -0 -0 -0 -0 -0 -0 -0 -0 -126 -175 -100 -228 -290 -241
-0 -0 -0 -0 -0 -0 -0 -0 -0 -0 -0 -0 -0 -0 -0 -0 -0 -0 -0 -0 -0 -0 -0 -0 -0 -0 -0 -0 -0 -0 -0 -0 -0 -0 -0 -0 -0 -0 -0 -182 -216 -294 -349 -410 -424
-0 -0 -0 -0 -0 -0 -0 -0 -0 -0 -0 -0 -0 -0 -0 -0 -0 -0 -0 -0 -0 -0 -0 -0 -0 -0 -0 -0 -0 -0 -0 -0 -0 -0 -0 -0 -0 -0 -0 -125 -298 -297 -419 -244 -45
-0 -0 -0 -0 -0 -0 -0 -0 -0 -0 -0 -0 -0 -0 -0 -0 -0 -0 -0 -0 -0 -0 -0 -0 -0 -0 -0 -0 -0 -0 -0 -0 -0 -0 -0 -0 -0 -0 -0 -206 -300 -323 -442 -0 -0
-0 -0 -0 -0 -0 -0 -0 -0 -0 -0 -0 -0 -0 -0 -0 -0 -0 -0 -0 -0 -0 -0 -0 -0 -0 -0 -0 -0 -0 -0 -0 -0 -0 -0 -0 -0 -0 -0 -126 -228 -305 -357 -432 -0 -0
-0 -0 -0 -0 -0 -0 -0 -0 -0 -0 -0 -0 -0 -0 -0 -0 -0 -0 -0 -0 -0 -0 -0 -0 -0 -0 -0 -0 -0 -0 -0 -0 -0 -0 -0 -0 -0 -0 -241 -317 -385 -491 -637 -0 -0
-0 -0 -0 -0 -0 -0 -0 -0 -0 -0 -0 -0 -0 -0 -0 -0 -0 -0 -0 -0 -0 -0 -0 -0 -0 -0 -0 -0 -0 -0 -0 -0 -0 -0 -0 -0 -0 -0 -243 -263 -395 -563 -0 -0 -0
-0 -0 -0 -0 -0 -0 -0 -0 -0 -0 -0 -0 -0 -0 -0 -0 -0 -0 -0 -0 -0 -0 -0 -0 -0 -0 -0 -0 -0 -0 -0 -0 -0 -0 -0 -0 -0 -75 -254 -307 -368 -0 -0 -0 -0
-0 -0 -0 -0 -0 -0 -0 -0 -0 -0 -0 -0 -0 -0 -0 -0 -0 -0 -0 -0 -0 -0 -0 -0 -0 -0 -0 -0 -0 -0 -0 -0 -0 -0 -0 -0 -0 -0 -0 -0 -0 -0 -0 -0 -0
-0 -0 -0 -0 -0 -0 -0 -0 -0 -0 -0 -0 -0 -0 -0 -0 -0 -0 -0 -0 -0 -0 -0 -0 -0 -0 -0 -0 -0 -0 -0 -0 -0 -0 -0 -0 -0 -0 -0 -0 -0 -0 -0 -0 -0
-0 -0 -0 -0 -0 -0 -0 -0 -0 -0 -0 -0 -0 -0 -0 -0 -0 -0 -0 -0 -0 -0 -0 -0 -0 -0 -0 -0 -0 -0 -0 -0 -0 -0 -0 -0 -0 -0 -0 -0 -0 -0 -0 -0 -0
-0 -0 -0 -0 -0 -0 -0 -0 -0 -0 -0 -0 -0 -0 -0 -0 -0 -0 -0 -0 -0 -0 -0 -0 -0 -0 -0 -0 -0 -0 -0 -0 -0 -0 -0 -0 -0 -0 -0 -0 -0 -0 -0 -0 -0
-0 -0 -0 -0 -0 -0 -0 -0 -0 -0 -0 -0 -0 -0 -0 -0 -0 -0 -0 -0 -0 -0 -0 -0 -0 -0 -0 -0 -0 -0 -0 -0 -0 -0 -0 -0 -0 -0 -0 -0 -0 -0 -0 -0 -0
-0 -0 -0 -0 -0 -0 -0 -0 -0 -0 -0 -0 -0 -0 -0 -0 -0 -0 -0 -0 -0 -0 -0 -0 -0 -0 -0 -0 -0 -0 -0 -0 -0 -0 -0 -0 -0 -0 -0 -0 -0 -0 -0 -0 -0
-0 -0 -0 -0 -0 -0 -0 -0 -0 -0 -0 -0 -0 -0 -0 -0 -0 -0 -0 -0 -0 -0 -0 -0 -0 -0 -0 -0 -0 -0 -0 -0 -0 -0 -0 -0 -0 -0 -0 -0 -0 -0 -0 -0 -0
-0 -0 -0 -0 -0 -0 -0 -0 -0 -0 -0 -0 -0 -0 -0 -0 -0 -0 -0 -0 -0 -0 -0 -0 -0 -0 -0 -0 -0 -0 -0 -0 -0 -0 -0 -0 -0 -0 -0 -0 -0 -0 -0 -0 -0
-0 -0 -0 -0 -0 -0 -0 -0 -0 -0 -0 -0 -0 -0 -0 -0 -0 -0 -0 -0 -0 -0 -0 -0 -0 -0 -0 -0 -0 -0 -0 -0 -0 -0 -0 -0 -0 -0 -0 -0 -0 -0 -0 -0 -0
-0 -0 -0 -0 -0 -0 -0 -0 -0 -0 -0 -0 -0 -0 -0 -0 -0 -0 -0 -0 -0 -0 -0 -0 -0 -0 -0 -0 -0 -0 -0 -0 -0 -0 -0 -0 -0 -0 -0 -0 -0 -0 -0 -0 -0
-0 -0 -0 -0 -0 -0 -0 -0 -0 -0 -0 -0 -0 -0 -0 -0 -0 -0 -0 -0 -0 -0 -0 -0 -0 -0 -0 -0 -0 -0 -0 -0 -0 -0 -0 -0 -0 -0 -0 -0 -0 -0 -0 -0 -0
-0 -0 -0 -0 -0 -0 -0 -0 -0 -0 -0 -0 -0 -0 -0 -0 -0 -0 -0 -0 -0 -0 -0 -0 -0 -0 -0 -0 -0 -0 -0 -0 -0 -0 -0 -0 -0 -0 -0 -0 -0 -0 -0 -49 -0
-0 -0 -0 -0 -0 -0 -0 -0 -0 -0 -0 -0 -0 -0 -0 -0 -0 -0 -0 -0 -0 -0 -0 -0 -0 -0 -0 -0 -0 -0 -0 -0 -0 -0 -0 -0 -0 -0 -0 -0 -0 -0 -0 -0 -0
-0 -0 -0 -0 -0 -0 -0 -0 -0 -0 -0 -0 -0 -0 -0 -0 -0 -0 -0 -0 -0 -0 -0 -0 -0 -0 -0 -0 -0 -0 -0 -0 -0 -0 -0 -0 -0 -0 -0 -0 -0 -0 -0 -0 -0
-0 -0 -0 -0 -0 -0 -0 -0 -0 -0 -0 -0 -0 -0 -0 -0 -0 -0 -0 -0 -0 -0 -0 -0 -0 -0 -0 -0 -0 -0 -0 -0 -0 -0 -0 -0 -0 -0 -0 -0 -0 -88 -0 -0 -0
Wind_Speed
21 18 16 16 16 18 20 22 23 24 24 23 22 22 22 21 21 18 21 19 16 17 16 15 15 17 15 14 14 13 10 13 16 14 15 18 14 15 13 12 10 11 8 11 16
21 18 16 15 14 14 16 19 22 22 22 21 21 20 20 20 19 22 22 18 19 18 14 13 14 15 15 13 15 11 10 12 15 14 15 19 14 13 13 13 13 11 10 8 14
21 17 16 14 13 13 14 14 15 19 20 20 19 19 18 17 16 16 15 15 17 16 14 15 17 15 12 16 13 12 13 13 13 14 16 17 16 13 12 12 11 9 9 8 3
21 17 14 13 12 13 14 14 15 15 18 18 17 16 16 14 11 16 12 13 15 13 13 15 14 13 14 15 16 18 25 18 9 16 16 16 13 13 12 10 10 11 11 9 7
22 17 14 14 13 13 13 12 14 16 16 16 14 14 12 14 16 15 10 10 11 9 11 14 14 13 14 19 21 16 16 13 13 15 16 14 19 12 9 9 9 11 11 11 9
22 18 16 14 15 14 12 11 12 13 16 14 12 12 13 14 13 11 9 9 10 10 13 14 13 18 15 18 18 20 14 16 17 19 19 15 15 14 8 7 9 11 12 12 12
23 21 19 17 17 15 13 11 11 12 13 12 12 13 15 15 13 12 11 12 14 12 17 17 15 15 18 20 21 19 20 22 21 19 17 16 18 14 6 7 9 11 13 15 16
27 25 22 20 19 17 15 13 12 13 14 16 15 14 16 17 18 17 20 19 19 21 20 19 18 18 17 20 19 21 18 15 16 16 17 15 19 21 2 8 8 11 13 15 18
29 27 24 22 20 19 17 14 13 15 16 13 12 13 14 15 20 21 21 19 18 19 19 18 16 17 16 13 15 17 18 8 21 21 7 11 15 18 11 10 7 10 12 14 17
31 29 26 23 22 20 18 16 15 11 14 14 17 16 15 13 12 21 19 18 16 16 15 14 12 11 13 11 12 16 18 13 9 10 6 8 13 12 8 7 6 8 10 12 15
32 31 28 25 22 20 20 17 18 16 17 22 22 20 16 13 12 10 16 13 14 12 11 12 11 12 13 11 11 14 17 19 13 12 9 11 12 10 7 5 5 7 10 12 13
33 32 30 27 25 22 19 18 18 22 23 24 24 23 22 10 11 10 8 10 11 12 13 15 9 11 9 11 14 16 15 17 14 16 12 13 14 10 9 8 7 10 12 13 13
34 33 32 28 25 17 22 21 22 20 19 24 18 11 6 7 9 9 8 12 14 17 21 13 10 10 13 14 14 16 15 15 15 19 14 16 16 16 15 9 10 12 13 14 16
35 34 33 30 19 23 20 23 23 19 18 17 9 13 6 7 10 9 8 12 14 15 16 11 12 11 15 15 15 15 18 20 22 21 18 21 25 18 13 13 12 13 15 15 17
35 35 33 27 24 21 24 27 24 16 19 10 5 11 8 6 8 7 12 15 14 18 16 13 12 13 14 15 16 15 21 22 22 24 25 24 26 18 11 10 11 12 14 16 17
37 35 34 24 22 23 27 27 17 15 19 9 6 4 6 8 9 8 14 13 12 16 17 17 17 16 14 15 18 20 21 25 23 22 21 20 20 12 12 9 10 11 11 13 15
38 36 33 24 22 23 27 19 13 15 16 11 4 4 6 8 6 6 9 11 12 13 16 17 20 17 14 17 20 18 18 22 21 20 19 25 22 20 13 6 6 7 9 11 14
39 37 28 25 22 21 21 14 14 15 18 18 5 2 5 3 8 3 7 11 13 13 16 16 18 18 16 15 16 17 18 18 20 21 26 28 20 17 7 4 5 6 8 11 14
39 32 28 23 16 15 16 16 14 14 18 18 13 10 13 12 13 7 8 13 13 14 14 14 14 15 15 16 18 21 23 18 22 23 22 19 18 14 8 7 7 7 9 11 13
34 30 26 16 10 15 16 18 17 20 18 17 15 15 16 18 11 7 9 17 14 14 13 16 16 16 18 18 20 19 16 20 20 21 22 20 18 17 9 9 9 10 11 12 13
27 27 20 16 10 15 20 20 22 25 17 17 16 16 16 16 16 13 14 14 11 12 15 15 17 20 22 20 23 18 17 17 17 17 21 24 21 20 9 9 10 10 11 13 14
24 24 14 18 21 19 21 18 16 22 17 17 18 20 21 18 16 14 13 13 11 12 15 17 17 22 21 22 20 16 17 16 19 20 19 21 23 14 9 9 9 11 11 10 11
28 26 24 18 24 24 23 25 30 21 18 17 19 18 20 18 17 15 13 11 11 15 13 15 21 25 25 17 17 17 19 19 17 18 20 22 22 17 18 15 14 14 11 9 9
23 24 22 21 21 24 26 23 20 16 18 17 18 18 18 18 18 17 14 10 13 15 14 16 19 19 18 17 20 23 26 25 21 22 21 19 24 24 22 13 14 21 18 15 12
22 23 21 24 21 24 20 20 19 20 19 18 21 21 20 20 20 20 20 15 18 11 17 17 19 18 20 21 23 26 28 29 27 24 22 25 24 27 25 21 17 14 16 17 19
25 24 24 29 26 23 21 23 25 22 18 17 17 19 17 18 18 18 19 18 18 15 16 17 20 18 21 21 24 29 31 25 24 26 17 19 21 20 18 17 17 16 16 19 20
24 25 24 25 24 25 23 23 25 16 18 17 14 16 18 17 17 18 17 16 16 15 16 16 17 18 22 21 26 29 21 19 15 18 16 21 18 15 17 17 17 17 18 18 19
Wind_Direction
300 289 278 275 268 270 275 277 283 283 280 279 280 275 273 274 261 278 244 252 268 260 268 268 256 233 273 275 270 262 314 326 339 347 353 345 20 16 14 29 350 352 22 61 98
302 292 280 274 267 261 262 268 283 282 278 279 281 276 276 280 279 251 236 265 265 270 283 292 284 282 265 285 274 293 323 338 335 341 348 6 19 19 24 38 31 33 18 75 106
308 290 279 271 263 260 258 253 251 278 279 281 279 277 276 286 284 280 284 282 279 282 291 302 289 295 300 275 289 299 308 330 327 338 340 349 4 360 35 19 49 47 68 96 80
310 291 275 264 258 263 264 261 257 248 276 277 280 277 277 301 348 289 316 302 292 290 294 301 302 299 295 290 300 301 275 302 333 334 338 320 359 351 12 26 44 74 63 28 29
314 295 276 266 261 263 261 255 255 267 261 282 291 289 303 284 259 307 330 323 311 311 303 306 298 314 307 295 294 312 308 324 332 335 338 336 301 356 6 33 21 358 9 18 6
315 303 285 271 268 265 255 244 234 237 296 300 302 296 308 294 314 12 22 342 311 315 308 321 316 292 301 297 307 298 320 311 314 309 318 328 320 322 347 15 19 24 18 8 354
320 312 303 290 281 270 258 245 224 202 271 285 296 287 291 284 295 59 62 306 295 307 264 288 306 300 295 279 290 299 298 292 290 303 307 325 319 320 349 57 46 43 36 25 11
328 321 315 305 296 280 270 249 221 186 200 179 210 251 247 220 166 169 169 220 211 207 242 266 283 269 281 281 298 299 313 319 303 296 300 319 312 305 62 94 61 53 36 24 15
329 326 320 312 304 291 282 253 206 141 61 344 263 287 264 238 208 191 199 222 209 222 230 249 267 262 279 320 318 317 301 161 230 305 312 320 325 358 104 102 76 65 51 39 25
328 325 321 312 305 296 290 260 8 291 9 352 256 279 255 287 287 198 227 236 238 243 260 276 295 332 305 346 350 339 333 306 85 54 36 16 347 11 55 85 75 62 52 47 34
327 324 320 311 300 296 309 322 318 328 320 269 243 268 284 2 335 332 257 275 275 303 314 314 342 355 333 63 49 352 346 344 348 307 12 352 345 17 18 13 38 55 73 71 51
325 323 317 308 299 295 329 318 339 307 277 244 228 233 209 12 4 332 343 327 321 321 329 310 350 318 35 11 347 334 349 340 350 315 329 338 345 20 356 348 353 343 340 341 352
321 321 317 305 300 337 308 283 275 329 319 270 288 330 18 15 350 60 25 327 314 302 295 320 339 341 337 331 337 340 337 339 333 320 340 333 320 334 336 339 339 341 348 344 346
317 316 317 303 320 305 312 305 307 336 320 316 334 300 348 359 340 106 39 336 321 320 326 335 327 335 327 327 328 323 326 317 312 317 315 325 310 316 320 317 321 325 331 340 343
313 312 311 311 297 305 306 292 301 335 307 338 7 330 341 351 4 339 329 320 318 309 322 328 328 325 332 332 327 325 321 318 314 310 312 311 308 311 316 312 312 322 330 336 339
308 308 310 324 306 296 294 296 323 322 302 325 350 18 345 331 312 349 332 334 324 320 318 315 321 317 328 337 331 323 319 312 313 311 310 315 318 303 310 300 316 327 337 339 342
304 301 303 316 300 305 303 309 314 307 321 307 337 338 336 313 316 331 350 345 343 334 325 328 324 322 322 320 328 332 323 319 318 315 310 312 316 318 324 318 326 333 337 345 347
302 297 315 308 294 309 307 303 297 307 311 310 321 356 336 346 313 317 338 336 337 333 326 322 320 329 332 328 327 333 325 322 318 316 310 311 313 322 355 23 7 358 354 349 345
303 311 307 298 309 325 307 288 290 309 317 308 308 302 296 309 325 305 320 325 329 330 326 327 327 343 343 332 324 318 316 325 315 313 315 319 323 328 334 333 337 339 339 338 342
307 309 303 308 329 310 301 282 287 303 304 303 293 305 305 303 312 321 320 322 326 330 332 320 320 331 330 329 322 319 326 321 319 316 311 314 315 318 305 310 317 318 320 326 327
312 303 302 311 322 302 292 285 282 293 299 292 292 298 311 313 320 315 322 334 350 341 331 329 324 317 323 321 319 323 318 324 327 323 317 314 316 323 307 307 308 311 312 316 319
306 294 309 312 286 295 288 289 287 288 292 289 293 292 295 309 312 315 315 325 338 336 332 330 330 318 320 316 319 327 325 325 315 315 322 319 312 329 324 317 311 306 311 313 321
294 290 285 300 281 282 288 283 277 276 284 289 290 300 300 302 298 311 317 327 333 329 333 329 322 315 317 329 332 322 326 329 326 321 315 315 320 330 321 317 318 323 309 295 304
293 285 284 289 284 283 282 282 286 283 282 288 292 300 302 299 303 304 316 319 321 326 334 334 322 318 314 320 320 313 312 314 319 315 313 309 312 316 318 314 315 327 335 336 333
282 278 285 277 278 283 285 281 284 281 286 288 289 290 293 293 298 300 309 312 314 327 321 323 322 321 319 316 315 311 308 305 305 311 311 315 315 318 320 325 332 348 351 350 344
274 274 278 276 276 278 280 275 274 283 281 284 290 302 300 297 300 301 305 309 311 312 316 321 316 321 318 321 319 313 309 306 306 307 309 322 323 346 355 356 352 347 344 343 343
274 276 275 270 273 273 276 278 276 274 286 290 295 299 301 303 310 311 314 316 320 315 312 314 316 315 312 319 317 316 330 323 322 326 327 320 333 351 350 354 355 353 351 347 345